Location: La Chapelle
(47.3723°N, 1.9707°W)
Time: 12:42:46
(UTC+00:00)

Daily predictions for brighter satellites

Satellite Brightness Start Highest point End
(mag) Time Altitude Azimuth Time Altitude Azimuth Time Altitude Azimuth
ATLAS 2AS CENTAUR R/B 4.4 18:42:16 10° W 18:48:43 33° NNW 18:54:58 10° NNE
Landsat 7 4.0 18:44:52 10° S 18:49:33 77° WSW 18:54:17 10° NNW
Cosmos 1842 4.1 18:49:02 10° NNE 18:52:10 27° ENE 18:55:16 10° SE
USA 59 Rocket 0.1 18:49:32 10° NW 18:53:16 64° NE 18:58:25 10° SE
Cosmos 1536 4.2 18:51:18 10° SE 18:53:49 17° E 18:56:20 10° NE
Cosmos 2061 Rocket 4.1 18:48:24 10° S 18:54:49 83° E 19:01:18 10° N
COSMOS 2428 2.8 18:49:22 10° S 18:54:54 54° ESE 19:00:29 10° NE
Cosmos 1707 3.7 18:53:00 10° NNE 18:55:58 24° ENE 18:58:54 10° SE
Cosmos 2292 Rocket 4.4 18:54:41 10° NNW 18:58:13 42° W 19:01:09 10° SSW
Cosmos 1818 3.7 18:54:27 10° SW 18:59:55 83° NW 19:05:27 10° NE
Okean O Rocket 3.2 18:58:16 10° ESE 19:01:17 18° ENE 19:04:18 10° NNE
Cosmos 2016 Rocket 4.5 18:55:23 10° SSW 19:01:25 66° WNW 19:07:31 10° N
Cosmos 1626 4.1 19:01:13 10° NNW 19:03:47 26° W 19:06:20 10° SSW
Cosmos 2278 Rocket 2.5 19:00:52 10° NNW 19:06:25 51° ENE 19:11:56 10° SE
Meteor 2-4 Rocket 4.4 19:00:32 10° NNW 19:06:26 66° W 19:12:12 10° S
USA 306 2.3 19:03:43 10° WSW 19:06:42 78° NNW 19:10:16 10° ENE
DMSP B5D1-3 4.4 19:03:28 10° NNE 19:08:34 75° ESE 19:13:37 10° S
CZ-4B DEB 4.3 19:03:30 10° SSE 19:08:56 64° ENE 19:14:22 10° N
Tsikada Rocket 4.4 19:02:51 10° NNW 19:09:06 73° W 19:15:26 10° S
CZ-4 R/B 1.6 19:06:16 10° SE 19:09:55 46° ENE 19:13:41 10° N
Cosmos 44 Rocket 4.5 19:08:28 10° NW 19:12:55 40° WSW 19:17:16 10° S
CZ-4B R/B 3.7 19:08:26 10° SE 19:13:30 41° ENE 19:18:31 10° N
NOSS 2-1 (C) 3.6 19:09:50 10° NW 19:13:37 87° SW 19:18:50 10° SE
Cosmos 1766 Rocket 3.5 19:09:25 10° S 19:13:42 61° E 19:18:03 10° NNE
Resurs 01 Rocket 2.1 19:11:24 10° SE 19:15:30 40° ENE 19:19:39 10° N
TSX-5 4.0 19:12:37 10° NW 19:15:40 53° WSW 19:18:53 10° SSE
USA 290 2.4 19:13:44 10° NNW 19:17:00 57° ENE 19:20:15 10° SE
Helios 1A 3.0 19:13:13 10° NNE 19:17:14 55° E 19:21:12 10° S
YAOGAN 1 3.9 19:13:49 10° S 19:17:53 43° W 19:22:00 10° NNW
ADEOS 3.6 19:12:52 10° SSE 19:18:05 90° ENE 19:23:20 10° NNW
GEOS 3 Rocket 3.7 19:13:55 10° SE 19:19:07 71° NE 19:24:17 10° NW
USA 186 2.3 19:17:45 10° SE 19:20:46 38° ENE 19:23:48 10° N
CZ-4B R/B 3.4 19:16:11 10° SSE 19:20:55 84° WSW 19:25:46 10° NNW
Cosmos 1814 Rocket 4.0 19:16:00 10° SSW 19:21:16 75° ESE 19:26:31 10° NNE
Cosmos 2360 Rocket 4.3 19:16:31 10° WSW 19:21:24 29° NW 19:26:19 10° NNE
PAYLOAD B 4.3 19:16:32 10° SSE 19:22:03 64° ENE 19:27:37 10° N
Cosmos 1743 3.5 19:18:46 10° SSW 19:22:14 50° WNW 19:25:44 10° N
KORONAS-FOTON 3.6 19:19:28 10° N 19:23:09 67° E 19:26:48 10° SSE
SPOT 5 4.3 19:22:15 14° E 19:24:17 18° ENE 19:27:15 10° NNE
Okean-O 4.2 19:23:05 14° E 19:25:03 19° ENE 19:28:06 10° NNE
Cosmos 1408 Rocket 4.5 19:24:13 10° SSE 19:27:55 27° E 19:31:39 10° NNE
SKYMED 3 4.4 19:24:00 10° NNE 19:28:09 85° ESE 19:32:15 10° SSW
ISS -3.3 19:25:19 10° SW 19:28:30 42° SSE 19:30:43 18° E
USA 267 4.3 19:22:36 10° ENE 19:28:32 39° N 19:34:29 10° WNW
SPOT 1/Viking Rocket 3.7 19:24:03 10° S 19:29:13 77° WSW 19:34:25 10° NNW
CZ-4B R/B 2.7 19:26:07 10° SSE 19:29:58 76° ENE 19:34:02 10° N
Kosmos-1783 4.1 19:29:09 10° WSW 19:31:16 30° NW 19:32:50 10° NNE
SL-08 R/B 3.5 19:28:54 10° NNE 19:33:51 80° WNW 19:38:45 10° SSW
Cosmos 2237 Rocket 2.4 19:28:38 10° S 19:33:57 45° ESE 19:39:17 10° NE
CSL-04 Rocket 3.7 19:32:00 10° SSE 19:37:14 57° ENE 19:42:26 10° N
Cosmos 2219 Rocket 3.8 19:33:25 10° WSW 19:38:40 37° NW 19:43:57 10° NNE
Cosmos 1674 3.6 19:37:42 10° NNW 19:40:53 43° W 19:44:02 10° SSW
Cosmos 1328 Rocket 4.1 19:37:13 10° NNW 19:41:27 59° W 19:45:40 10° S
Meteor 1-14 Rocket 4.1 19:37:17 10° S 19:42:48 88° E 19:48:23 10° NNE
Cosmos 1356 Rocket 3.3 19:38:56 10° N 19:43:09 85° E 19:47:19 10° SSE
Aureole 1 4.2 19:41:01 10° NNW 19:44:08 77° ENE 19:46:29 20° SSE
Lacrosse 4 Rocket 3.7 19:41:13 10° NW 19:44:43 24° WSW 19:48:09 10° SSW
SJ-6B 3.8 19:42:11 10° S 19:45:39 44° W 19:49:07 10° NNW
Meteor 1-11 Rocket 3.8 19:40:28 10° SSE 19:45:52 50° E 19:51:13 10° NNE
Meteor 1-4 Rocket 3.0 19:43:35 10° NNW 19:46:09 42° W 19:48:41 10° S
CARTOSAT-1 3.4 19:46:12 10° SSE 19:50:27 87° ENE 19:54:44 10° NNW
ATLAS CENTAUR R/B 1.2 19:47:29 10° SSW 19:50:51 44° ESE 19:54:24 10° NE
Cosmos 158 Rocket 4.0 19:46:20 10° S 19:50:57 45° ESE 19:55:36 10° NNE
Cosmos 1805 Rocket 4.2 19:52:47 27° ESE 19:54:00 32° E 19:57:52 10° NNE
Cosmos 1733 2.7 19:54:48 10° S 19:58:13 79° E 20:01:40 10° NNE
USA 276 2.0 19:57:37 10° WNW 20:00:24 53° SSW 20:00:38 51° S
In-Cosmos 22 4.1 19:55:19 10° N 20:01:04 83° ENE 20:06:00 13° SSE
Cosmos 2369 Rocket 3.6 19:58:32 10° N 20:03:08 24° NE 20:05:12 20° ENE
Cosmos 1980 3.6 19:57:44 10° SSW 20:03:25 80° ESE 20:09:08 10° NNE
SWARM A 4.2 20:03:48 24° S 20:05:45 78° E 20:09:16 10° N
Sich 1 3.1 20:07:33 33° SSE 20:09:06 49° E 20:13:17 10° NNE
BlueWalker 3 4.0 20:07:36 10° W 20:10:22 20° SW 20:12:13 14° S
Cosmos 1943 Rocket 2.2 20:05:04 10° NNW 20:10:36 81° WSW 20:14:05 23° SSE
NOSS 0 Rocket 4.2 20:05:44 10° SW 20:11:58 72° WNW 20:18:14 10° NNE
CSL-04 Debris 4.4 20:07:40 10° S 20:13:07 72° WSW 20:18:37 10° NNW
Terra 2.9 20:13:52 26° ENE 20:14:13 27° ENE 20:18:07 10° N
Cosmos 2298 Rocket 4.1 20:09:13 10° NNW 20:14:28 60° ENE 20:16:27 36° SE
ACS3 Solar Sail 1.8 20:09:36 17° SSE 20:14:41 79° ENE 20:21:07 10° N
ERS-1 Rocket 3.7 20:14:03 31° E 20:14:56 33° ENE 20:19:24 10° N
Nadezhda 4 Rocket 4.0 20:09:27 10° N 20:15:45 86° W 20:21:40 12° S
Cosmos 2195 Rocket 4.4 20:09:48 10° N 20:15:53 63° ENE 20:19:12 28° SSE
Cosmos 1570 Rocket 3.9 20:10:52 10° SSW 20:16:10 86° ESE 20:21:27 10° NNE
Cosmos 2150 Rocket 4.0 20:11:03 10° NNW 20:16:11 61° ENE 20:17:56 39° SE
USA 32 4.0 20:11:55 10° N 20:17:08 62° E 20:19:23 33° SSE
Cosmos 1975 4.2 20:18:58 24° NE 20:18:58 24° NE 20:20:56 10° NNE
Cosmos 1805 3.0 20:21:37 61° ENE 20:21:37 61° ENE 20:25:00 10° NNE
Cosmos 1315 Rocket 2.8 20:19:12 10° NNW 20:23:11 80° W 20:24:27 42° S
Cosmos 2026 Rocket 4.0 20:17:02 10° N 20:23:13 61° ENE 20:25:51 34° SE
Cosmos 1092 Rocket 4.1 20:17:26 10° N 20:23:43 60° ENE 20:26:28 34° SE
Ariane Rocket 4.2 20:24:21 25° ENE 20:24:35 25° ENE 20:28:42 10° N
Cosmos 836 Rocket 4.4 20:21:26 10° SSW 20:26:41 71° ESE 20:31:58 10° NNE
Cosmos 1536 4.1 20:25:49 10° SW 20:29:22 38° WNW 20:32:59 10° N
Cosmos 1125 Rocket 4.1 20:27:35 10° NNW 20:32:38 54° WSW 20:35:39 23° S
SL-16 R/B 2.7 20:35:16 39° E 20:35:16 39° E 20:39:41 10° NE
Okean O Rocket 2.1 20:35:02 29° SSW 20:37:07 57° W 20:41:30 10° NNW
Cosmos 1634 Rocket 4.0 20:36:32 39° SSE 20:38:42 58° E 20:44:53 10° NNE
USA 306 4.0 20:36:39 10° WNW 20:39:42 30° N 20:40:35 27° NNE
Cosmos 1656 Rocket 3.9 20:34:53 10° NNW 20:40:24 51° ENE 20:41:19 46° E
SL-14 R/B 3.2 20:37:02 10° N 20:40:36 78° NNW 20:40:36 78° NNW
USA 59 Rocket 2.5 20:39:37 10° WNW 20:42:42 19° WSW 20:46:29 10° SSW
PSLV R/B 4.0 20:44:13 59° W 20:44:13 59° W 20:47:39 10° NNW
CZ-4 R/B 4.1 20:42:22 10° SW 20:44:43 16° W 20:47:06 10° NW
IRS-1C Rocket 4.1 20:45:02 56° ESE 20:45:40 61° ENE 20:50:53 10° N
Cosmos 773 Rocket 3.9 20:45:39 54° SSE 20:46:43 68° ESE 20:51:59 10° NNE
Cosmos 2278 Rocket 3.9 20:45:26 10° NW 20:50:12 28° WSW 20:54:31 12° SSW
Cosmos 1500 Rocket 4.1 20:47:41 21° SSW 20:50:25 56° WNW 20:54:43 10° N
Resurs 01 Rocket 3.8 20:48:30 10° SSW 20:52:04 24° W 20:55:38 10° NW
Cosmos 2228 Rocket 3.4 20:51:24 10° N 20:55:20 57° NE 20:55:20 57° NE
Cosmos 2034 Rocket 4.4 20:50:15 10° SSW 20:56:23 60° WNW 21:02:29 10° N
Cosmos 1743 Rocket 3.8 20:56:19 52° SW 20:57:07 63° W 21:01:27 10° N
MetOp-B 4.1 20:56:15 53° S 20:57:33 78° WSW 21:02:56 10° NNW
CRYOSAT 2 4.4 20:55:30 10° N 21:00:25 79° W 21:01:10 62° SSW
SPOT 3 Rocket 4.0 21:00:55 46° NE 21:00:55 46° NE 21:05:24 10° N
Okean-O 3.1 21:00:31 52° SW 21:01:01 55° W 21:05:22 10° NNW
SPOT 5 3.0 21:01:22 56° SW 21:01:54 61° WSW 21:06:21 10° NNW
NOSS 3-3 (C) 3.9 20:59:42 10° SW 21:05:07 76° NW 21:11:35 10° NE
ISS -1.6 21:02:01 10° W 21:03:42 26° W 21:03:42 26° W
USA 267 3.8 21:08:22 34° ENE 21:10:47 49° NNE 21:17:01 10° NW
Cosmos 2237 Rocket 3.8 21:13:03 10° WSW 21:18:08 34° NW 21:23:15 10° NNE
NOSS 3-3 (A) 4.3 21:13:59 10° SW 21:19:24 60° NW 21:25:48 10° NE
Cosmos 2279 Rocket 3.8 21:20:00 77° ESE 21:20:12 78° E 21:26:27 10° N
Cosmos 1607 3.9 21:16:59 10° SW 21:23:28 88° NW 21:29:57 10° NE
MOS 1 Rocket 4.1 21:24:48 50° WSW 21:25:17 51° W 21:30:26 10° NNW
ATLAS CENTAUR R/B 3.4 21:25:28 10° W 21:28:25 23° NW 21:29:51 19° N
Cosmos 2297 3.7 21:23:37 10° NNW 21:28:59 78° WNW 21:28:59 78° WNW
Spot 2 Rocket 3.8 21:31:06 64° NW 21:31:06 64° NW 21:35:25 10° NNW
NOSS 3-4 (A) 3.7 21:37:17 10° NW 21:44:09 82° SW 21:44:37 78° S
NOSS 3-4 (C) 3.7 21:37:24 10° NW 21:44:16 82° SW 21:44:43 78° S
Cosmos 2369 Rocket 2.5 21:42:02 10° NNW 21:46:58 63° WNW 21:46:58 63° WNW
Terra 3.1 21:52:34 36° WNW 21:52:34 36° WNW 21:56:03 10° NNW
ERS-1 Rocket 4.2 21:53:58 35° W 21:53:58 35° W 21:58:14 10° NNW
ACS3 Solar Sail 4.0 21:54:53 10° SW 21:59:24 20° W 22:03:57 10° NW
Ariane Rocket 4.1 22:04:29 40° WNW 22:04:29 40° WNW 22:08:09 10° NNW
Cosmos 2266 Rocket 4.3 22:04:19 10° NNW 22:09:40 64° NW 22:09:40 64° NW
SL-16 R/B 3.5 22:17:00 31° W 22:18:32 36° NW 22:23:47 10° NNE
ATLAS 2AS CENTAUR R/B 4.1 22:29:15 10° NNW 22:35:09 28° NNE 22:36:31 26° NE
USA 267 4.0 22:55:43 46° WNW 22:55:43 46° WNW 23:00:07 10° NW
Cosmos 2344 4.0 23:19:17 10° NW 23:27:14 77° NNE 23:27:14 77° NNE
Cosmos 1980 Rocket 4.2 23:49:17 10° N 23:52:13 23° NNE 23:52:13 23° NNE
